Regional Weather Roundup
Issued by NWS

Home | Current Version | Previous Version | Graphics & Text | Print | Product List | Glossary On
Versions: 1 2 3 4 5 6 7 8 9 10 11 12 13 14 15 16 17 18 19 20 21 22 23 24 25 26 27 28 29 30 31 32 33 34 35 36 37 38 39 40 41 42 43 44 45 46 47 48 49 50
000
ASUS43 KMKX 281011
RWRWI

WISCONSIN REGIONAL WEATHER ROUNDUP
NATIONAL WEATHER SERVICE MILWAUKEE/SULLIVAN WI
500 AM CDT TUE APR 28 2015

NOTE: "FAIR" INDICATES FEW OR NO CLOUDS BELOW 12,000 FEET WITH NO
SIGNIFICANT WEATHER AND/OR OBSTRUCTIONS TO VISIBILITY.

WIZ001-002-006>008-014>016-023>028-281100-
NORTHWEST WISCONSIN

CITY           SKY/WX    TMP DP  RH WIND       PRES   REMARKS
SUPERIOR ARPT  CLEAR     28  26  94 CALM      30.16S
ASHLAND        CLEAR     29  27  92 CALM      30.16S
HAYWARD        CLEAR     32  27  81 CALM      30.15S
SIREN          CLEAR     33  29  85 CALM      30.15S
CUMBERLAND     CLEAR     36  32  87 CALM      30.15S
RICE LAKE      CLEAR     34  32  92 CALM      30.17S
CHETEK         CLEAR     35  31  87 CALM      30.17R
LADYSMITH      CLEAR     35  30  84 E3        30.18R
EAU CLAIRE     CLEAR     35  30  82 CALM      30.16R
MENOMONIE      CLEAR     38  32  79 CALM      30.16S
NEW RICHMOND   PTCLDY    36  33  87 CALM      30.16S
OSCEOLA        CLEAR     37  32  81 CALM      30.18R
$$

WIZ003>005-009-010-017-018-281100-
NORTH CENTRAL WISCONSIN

CITY           SKY/WX    TMP DP  RH WIND       PRES   REMARKS
MANITOWISH WTR CLEAR     28  28 100 CALM      30.15S
ARBOR VITAE    CLEAR     32  28  86 CALM      30.15S
WOODRUFF       CLEAR     32  28  86 CALM      30.15S
RHINELANDER    CLEAR     26  22  84 CALM      30.16S
EAGLE RIVER    CLEAR     28  28  99 CALM      30.15S
LAND O LAKES   CLEAR     27  26  99 CALM      30.16R
PHILLIPS       CLEAR     29  27  90 CALM      30.15S
TOMAHAWK       CLEAR     27  26  93 CALM      30.17S
MEDFORD        FAIR      36  32  85 SE3       30.16S
MERRILL        CLEAR     28  27  96 CALM      30.17S
$$

WIZ029-030-035-036-043>047-281100-
CENTRAL WISCONSIN

CITY           SKY/WX    TMP DP  RH WIND       PRES   REMARKS
WAUSAU         CLEAR     37  33  85 CALM      30.15S
MOSINEE        CLEAR     37  34  87 CALM      30.17S
MARSHFIELD     CLEAR     39  33  79 CALM      30.17R
STEVENS POINT  CLEAR     30  29  94 CALM      30.17S
WAUPACA        CLEAR     35  32  90 CALM      30.17F
WAUTOMA        CLEAR     29  28  96 CALM      30.18S
WISC RAPIDS    FAIR      34  31  88 CALM      30.18S
CAMP DOUGLAS   CLEAR     32  32 100 E2        30.15S
$$

WIZ011>013-019>022-031-037>040-048>050-281100-
NORTHEAST WISCONSIN

CITY           SKY/WX    TMP DP  RH WIND       PRES   REMARKS
ANTIGO         CLEAR     31  30  95 CALM      30.16S
SHAWANO        CLEAR     34  32  92 CALM      30.18S
OCONTO         CLEAR     29  29 100 CALM      30.17S
STURGEON BAY   CLEAR     36  30  80 CALM      30.18S
GREEN BAY      CLEAR     35  32  88 NW3       30.17R
MANITOWOC      CLEAR     38  33  82 NW5       30.17R WCI  34
APPLETON       CLEAR     36  30  80 N5        30.17S WCI  32
CLINTONVILLE   CLEAR     32  32 100 CALM      30.17S
OSHKOSH        CLEAR     35  31  85 CALM      30.16S
$$

WIZ032>034-041-042-053>061-281100-
SOUTHWEST WISCONSIN

CITY           SKY/WX    TMP DP  RH WIND       PRES   REMARKS
LA CROSSE      CLEAR     42  34  73 S3        30.15R
SPARTA         CLEAR     31  28  90 CALM      30.17R
VIROQUA        CLEAR     39  35  85 E7        30.14R WCI  34
BOSCOBEL       CLEAR     36  32  85 CALM      30.16R
PRAIRIE DU CHI CLEAR     39  34  82 CALM      30.14R
PLATTEVILLE    CLEAR     38  34  86 E8        30.13S WCI  32
$$

WIZ056-057-062-063-064-067-068-281100-
SOUTH CENTRAL WISCONSIN

CITY           SKY/WX    TMP DP  RH WIND       PRES   REMARKS
REEDSBURG      CLEAR     35  32  90 CALM      30.15S
BARABOO/DELLS  CLEAR     33  31  90 CALM      30.15S
LONE ROCK      CLEAR     38  33  82 CALM      30.16S
MINERAL POINT  CLEAR     41  34  75 E7        30.14S
MADISON        CLEAR     33  31  92 CALM      30.16S
MIDDLETON      CLEAR     34  32  92 CALM      30.16S
WATERTOWN      CLEAR     32  32 100 CALM      30.15S
MONROE         CLEAR     41  34  75 SE3       30.14S
JANESVILLE     CLEAR     34  32  93 CALM      30.15S
$$

WIZ051-052-058>065-066-070>072-281100-
SOUTHEAST WISCONSIN

CITY           SKY/WX    TMP DP  RH WIND       PRES   REMARKS
MILWAUKEE      CLEAR     40  31  70 NW3       30.15S
WAUKESHA       CLEAR     36  30  80 NW3       30.16S
MILWAUKEE/TIMM CLEAR     36  30  80 N5        30.15F WCI  32
RACINE         CLEAR     39  32  76 N7        30.16R WCI  34
BURLINGTON     CLEAR     32  32  97 N3        30.14S
KENOSHA        CLEAR     39  32  76 N8        30.14S WCI  33
FOND DU LAC    CLEAR     31  28  89 CALM      30.17R
SHEBOYGAN      CLEAR     35  31  85 NW6       30.16R WCI  30
WEST BEND      CLEAR     32  30  93 CALM      30.16R
JUNEAU         CLEAR     35  32  88 N5        30.17R WCI  31
$$

LSZ147-162-281100-
LAKE SUPERIOR

STATION/POSITION TIME  TEMP    WIND        PRES    WAVE
                       AIR SEA DIR/SP/G            HT/PER
                 (UTC) (F)     (DEG/KT/KT) (MB)    (FT/S)
W MID LAKE BUOY  0950   36 34   CALM  /  2 1022.4R   0
DEVILS ISLAND    1000   40     210/  2/  2 1021.8R
PORT WING        0940   32     170/  2/  4 1021.3S
SAXON HARBOR     0900   32        CALM     1020.7S
$$

LMZ867-665-643>646-281100-
LAKE MICHIGAN

STATION/POSITION TIME  TEMP    WIND        PRES    WAVE
                       AIR SEA DIR/SP/G            HT/PER
                 (UTC) (F)     (DEG/KT/KT) (MB)    (FT/S)
CHAMBERS ISLAND  0900   35        CALM     1021.3S
NORTHPORT PIER   0900   39     310/  5/  8 1021.0S
SISTER BAY       0902   38        CALM       N/A
KEWAUNEE LAKESHO 0900          300/  3/  6 1020.4R
SHEBOYGAN LAKESH 1000   42      10/ 12/ 13 1021.9R
PORT WASHINGTON  0900   41     330/  4/  7 1021.7R
MILWAUKEE LAKESH 0900   43     350/  8/ 11   N/A
KENOSHA   LAKESH 1000   42     350/  9/ 11 1020.7R
$$

TC  - TEMPERATURE IN CELSIUS
VSB - VISIBILITY IN STATUTE MILES
WCI - WIND CHILL INDEX
HX  - HEAT INDEX



USA.gov is the U.S. government's official web portal to all federal, state and local government web resources and services.